When you browse on this site, cookies collect data to enhance your experience and personalize the content and advertising you see.
Visit our Privacy Policy to learn more. By continuing to use the site, you agree to this use of cookies and data.
  • en Suisse
  • Liste des pays
  • À 7 jours
  • Température de l'eau
  • Carte météo
  • Widgets météo
  • user-avatar
    Se connecter

    Météo par heure à Chichester

    Ce jour, 28 Janvier, Mardi

    Heure Température Précipitation Vent Pression Humidité
    00:00 +4°C° 0 mm 7 m/s 742 mmHg 81%
    01:00 +3°C° 0.6 mm 9 m/s 742 mmHg 81%
    02:00 +3°C° 0.6 mm 10 m/s 742 mmHg 81%
    03:00 +2°C° 0.6 mm 12 m/s 742 mmHg 80%
    04:00 +2°C° 0 mm 11 m/s 742 mmHg 79%
    05:00 +1°C° 0 mm 10 m/s 743 mmHg 78%
    06:00 0°C° 0 mm 10 m/s 743 mmHg 81%
    07:00 0°C° 0 mm 10 m/s 744 mmHg 80%
    08:00 0°C° 0 mm 9 m/s 745 mmHg 79%
    09:00 0°C° 0 mm 9 m/s 746 mmHg 77%
    10:00 +2°C° 0 mm 9 m/s 746 mmHg 73%
    11:00 +3°C° 0 mm 10 m/s 747 mmHg 70%
    12:00 +5°C° 0 mm 9 m/s 748 mmHg 68%
    13:00 +5°C° 0.1 mm 9 m/s 748 mmHg 69%
    14:00 +5°C° 0.1 mm 9 m/s 747 mmHg 69%
    15:00 +5°C° 0.1 mm 10 m/s 747 mmHg 70%
    16:00 +3°C° 0.1 mm 9 m/s 748 mmHg 75%
    17:00 +2°C° 0.1 mm 9 m/s 748 mmHg 79%
    18:00 +1°C° 0.1 mm 9 m/s 749 mmHg 84%
    19:00 +1°C° 0 mm 9 m/s 749 mmHg 82%
    20:00 0°C° 0 mm 8 m/s 750 mmHg 81%
    21:00 0°C° 0 mm 8 m/s 750 mmHg 79%
    22:00 0°C° 0 mm 8 m/s 751 mmHg 80%
    23:00 0°C° 0 mm 8 m/s 752 mmHg 80%

    Demain, 29 Janvier, Mercredi

    Heure Température Précipitation Vent Pression Humidité
    00:00 0°C° 0 mm 8 m/s 752 mmHg 80%
    01:00 0°C° 0 mm 8 m/s 753 mmHg 80%
    02:00 0°C° 0 mm 8 m/s 753 mmHg 80%
    03:00 0°C° 0 mm 8 m/s 753 mmHg 80%
    04:00 0°C° 0 mm 8 m/s 754 mmHg 80%
    05:00 0°C° 0 mm 8 m/s 754 mmHg 81%
    06:00 0°C° 0 mm 8 m/s 755 mmHg 82%
    07:00 0°C° 0 mm 7 m/s 755 mmHg 82%
    08:00 +2°C° 0 mm 7 m/s 756 mmHg 83%
    09:00 +2°C° 0 mm 6 m/s 756 mmHg 83%
    10:00 +3°C° 0 mm 6 m/s 757 mmHg 79%
    11:00 +4°C° 0 mm 6 m/s 757 mmHg 76%
    12:00 +7°C° 0 mm 6 m/s 758 mmHg 72%
    13:00 +6°C° 0 mm 7 m/s 757 mmHg 73%
    14:00 +6°C° 0 mm 7 m/s 757 mmHg 74%
    15:00 +6°C° 0 mm 7 m/s 757 mmHg 76%
    16:00 +6°C° 0 mm 7 m/s 757 mmHg 79%
    17:00 +5°C° 0 mm 7 m/s 757 mmHg 82%
    18:00 +5°C° 0 mm 7 m/s 757 mmHg 85%
    19:00 +5°C° 0 mm 7 m/s 757 mmHg 87%
    20:00 +5°C° 0 mm 7 m/s 756 mmHg 88%
    21:00 +5°C° 0 mm 7 m/s 756 mmHg 89%
    22:00 +5°C° 0 mm 7 m/s 756 mmHg 91%
    23:00 +5°C° 0 mm 6 m/s 756 mmHg 92%

    Après-demain, 30 Janvier, Jeudi

    Heure Température Précipitation Vent Pression Humidité
    00:00 +6°C° 0 mm 5 m/s 756 mmHg 93%
    01:00 +6°C° 0 mm 5 m/s 755 mmHg 94%
    02:00 +6°C° 0 mm 5 m/s 755 mmHg 95%
    03:00 +6°C° 0 mm 5 m/s 754 mmHg 96%
    04:00 +6°C° 0 mm 5 m/s 754 mmHg 96%
    05:00 +7°C° 0 mm 4 m/s 753 mmHg 96%
    06:00 +7°C° 0 mm 4 m/s 752 mmHg 97%
    07:00 +7°C° 0.1 mm 4 m/s 752 mmHg 97%
    08:00 +7°C° 0.1 mm 5 m/s 752 mmHg 97%
    09:00 +8°C° 0.1 mm 5 m/s 751 mmHg 97%
    10:00 +8°C° 0.1 mm 5 m/s 751 mmHg 96%
    11:00 +10°C° 0.1 mm 4 m/s 751 mmHg 96%
    12:00 +10°C° 0.1 mm 4 m/s 751 mmHg 95%
    13:00 +10°C° 0 mm 5 m/s 751 mmHg 95%
    14:00 +10°C° 0 mm 6 m/s 751 mmHg 94%
    15:00 +11°C° 0 mm 7 m/s 751 mmHg 93%
    16:00 +10°C° 0 mm 7 m/s 751 mmHg 92%
    17:00 +10°C° 0 mm 7 m/s 751 mmHg 91%
    18:00 +10°C° 0 mm 7 m/s 752 mmHg 90%
    19:00 +10°C° 0 mm 7 m/s 752 mmHg 91%
    20:00 +10°C° 0 mm 7 m/s 752 mmHg 92%
    21:00 +10°C° 0 mm 7 m/s 753 mmHg 92%
    22:00 +10°C° 0 mm 7 m/s 753 mmHg 92%
    23:00 +9°C° 0 mm 6 m/s 754 mmHg 93%

    31 Janvier, Vendredi

    Heure Température Précipitation Vent Pression Humidité
    00:00 +9°C° 0 mm 6 m/s 754 mmHg 93%
    01:00 +9°C° 0 mm 6 m/s 755 mmHg 93%
    02:00 +9°C° 0 mm 6 m/s 755 mmHg 92%
    03:00 +9°C° 0 mm 5 m/s 755 mmHg 92%
    04:00 +9°C° 0 mm 6 m/s 755 mmHg 92%
    05:00 +9°C° 0 mm 6 m/s 755 mmHg 93%
    06:00 +9°C° 0 mm 6 m/s 755 mmHg 93%
    07:00 +9°C° 0 mm 6 m/s 755 mmHg 93%
    08:00 +9°C° 0 mm 6 m/s 755 mmHg 92%
    09:00 +9°C° 0 mm 6 m/s 755 mmHg 91%
    10:00 +10°C° 0 mm 7 m/s 754 mmHg 92%
    11:00 +10°C° 0 mm 8 m/s 754 mmHg 92%
    12:00 +10°C° 0 mm 9 m/s 754 mmHg 93%
    13:00 +10°C° 0.1 mm 9 m/s 754 mmHg 93%
    14:00 +10°C° 0.1 mm 9 m/s 754 mmHg 94%
    15:00 +10°C° 0.1 mm 9 m/s 753 mmHg 95%
    16:00 +10°C° 0.1 mm 9 m/s 753 mmHg 95%
    17:00 +10°C° 0.1 mm 9 m/s 753 mmHg 95%
    18:00 +10°C° 0.1 mm 8 m/s 753 mmHg 95%
    19:00 +10°C° 0.3 mm 8 m/s 752 mmHg 95%
    20:00 +10°C° 0.3 mm 8 m/s 752 mmHg 96%
    21:00 +10°C° 0.3 mm 7 m/s 752 mmHg 96%
    22:00 +10°C° 1.3 mm 7 m/s 751 mmHg 96%
    23:00 +10°C° 1.3 mm 8 m/s 751 mmHg 95%

    1 Février, Samedi

    Heure Température Précipitation Vent Pression Humidité
    00:00 +10°C° 1.3 mm 8 m/s 751 mmHg 95%
    01:00 +10°C° 0.2 mm 7 m/s 750 mmHg 95%
    02:00 +10°C° 0.2 mm 7 m/s 750 mmHg 95%
    03:00 +10°C° 0.2 mm 7 m/s 750 mmHg 95%
    04:00 +10°C° 0 mm 6 m/s 749 mmHg 94%
    05:00 +9°C° 0 mm 6 m/s 749 mmHg 93%
    06:00 +9°C° 0 mm 6 m/s 748 mmHg 92%
    07:00 +9°C° 0.2 mm 6 m/s 749 mmHg 92%
    08:00 +8°C° 0.2 mm 7 m/s 749 mmHg 91%
    09:00 +7°C° 0.2 mm 8 m/s 750 mmHg 91%
    10:00 +7°C° 0.3 mm 9 m/s 751 mmHg 83%
    11:00 +7°C° 0.3 mm 10 m/s 752 mmHg 76%
    12:00 +7°C° 0.3 mm 11 m/s 754 mmHg 68%
    13:00 +7°C° 0 mm 11 m/s 755 mmHg 68%
    14:00 +7°C° 0 mm 11 m/s 756 mmHg 69%
    15:00 +7°C° 0 mm 10 m/s 757 mmHg 69%
    16:00 +6°C° 0 mm 10 m/s 757 mmHg 71%
    17:00 +5°C° 0 mm 9 m/s 758 mmHg 74%
    18:00 +4°C° 0 mm 8 m/s 759 mmHg 77%
    19:00 +4°C° 0 mm 8 m/s 759 mmHg 78%
    20:00 +4°C° 0 mm 7 m/s 760 mmHg 80%
    21:00 +4°C° 0 mm 7 m/s 760 mmHg 81%
    22:00 +4°C° 0 mm 7 m/s 761 mmHg 83%
    23:00 +4°C° 0 mm 7 m/s 761 mmHg 85%

    2 Février, Dimanche

    Heure Température Précipitation Vent Pression Humidité
    00:00 +4°C° 0 mm 6 m/s 761 mmHg 87%
    01:00 +5°C° 0 mm 7 m/s 760 mmHg 87%
    02:00 +5°C° 0 mm 7 m/s 759 mmHg 87%
    03:00 +6°C° 0 mm 7 m/s 759 mmHg 88%
    04:00 +6°C° 2.1 mm 9 m/s 757 mmHg 90%
    05:00 +7°C° 2.1 mm 10 m/s 756 mmHg 93%
    06:00 +7°C° 2.1 mm 12 m/s 755 mmHg 96%
    07:00 +8°C° 1 mm 12 m/s 755 mmHg 95%
    08:00 +9°C° 1 mm 12 m/s 755 mmHg 94%
    09:00 +10°C° 1 mm 12 m/s 755 mmHg 93%
    10:00 +11°C° 0.1 mm 11 m/s 756 mmHg 92%
    11:00 +11°C° 0.1 mm 10 m/s 756 mmHg 91%
    12:00 +11°C° 0.1 mm 9 m/s 757 mmHg 90%
    13:00 +11°C° 0 mm 8 m/s 757 mmHg 91%
    14:00 +11°C° 0 mm 8 m/s 757 mmHg 92%
    15:00 +11°C° 0 mm 7 m/s 757 mmHg 92%
    16:00 +11°C° 0.2 mm 7 m/s 757 mmHg 94%
    17:00 +10°C° 0.2 mm 7 m/s 757 mmHg 96%
    18:00 +10°C° 0.2 mm 7 m/s 757 mmHg 97%
    19:00 +10°C° 0.3 mm 7 m/s 757 mmHg 97%
    20:00 +10°C° 0.3 mm 7 m/s 757 mmHg 96%
    21:00 +10°C° 0.3 mm 8 m/s 757 mmHg 95%
    22:00 +10°C° 0.2 mm 8 m/s 757 mmHg 95%
    23:00 +10°C° 0.2 mm 9 m/s 757 mmHg 94%
    Voir plus